Simultaneous Nadir Overpasses (SNOs) Predictions

Prediction of SNOs between GOES-16 and NPP Satellite Orbit:

Table of predicted SNOs for the next 14.0 days since TLE Epoch: 6/11/2022
Index Date Time (GOES-16) GOES-16 Lat,Lon NPP Lat,Lon Distance(km) Time Diff (sec)
1 06/11/2022 18:13:52 -0.01, -75.20 0.59, -72.57 300.47 80
2 06/13/2022 06:38:21 0.01, -75.20 0.61, -77.84 300.64 80
3 06/14/2022 06:16:57 -0.00, -75.21 -0.40, -73.31 215.27 80
4 06/15/2022 18:38:56 0.00, -75.21 -0.79, -78.62 389.41 80
5 06/16/2022 18:22:53 0.01, -75.22 0.28, -74.11 126.97 80
6 06/18/2022 06:44:43 -0.00, -75.23 0.92, -79.38 473.12 80
7 06/19/2022 06:23:19 -0.00, -75.24 -0.09, -74.85 43.72 80
8 06/21/2022 18:26:34 0.00, -75.27 -0.08, -75.64 41.78 80
9 06/22/2022 18:10:30 0.00, -75.29 0.93, -71.11 475.98 80
10 06/24/2022 06:32:21 -0.00, -75.32 0.21, -76.40 122.18 80
